GFSNE_925_thetae_003.txt.gz
Theta_e
292 293 293 293 294 294 295 294 294 295 294 294 294 293 295 293 295 294 293 293 295 295 295 297 298 299 297 300 305 303 303 306 310 313 313 314 316 315
291 292 292 292 292 293 293 293 292 293 293 293 293 293 293 293 292 293 293 293 293 294 293 294 295 295 299 298 298 300 301 304 307 308 312 315 317 317
290 291 291 291 291 291 291 291 291 291 292 291 291 292 291 291 292 291 292 292 293 292 292 293 294 295 296 298 298 299 302 304 307 308 311 315 316 318
289 290 290 290 290 290 290 290 290 289 290 291 290 290 290 291 291 291 290 291 291 292 292 292 293 295 295 296 298 300 301 304 305 305 307 311 314 316
289 289 289 289 289 289 289 288 288 289 289 289 289 289 290 290 290 290 290 290 290 291 291 291 292 293 294 296 297 299 301 302 302 299 306 309 310 313
288 288 289 289 288 288 287 288 288 289 289 289 289 289 289 290 289 289 288 288 289 289 289 290 291 292 295 295 294 295 296 298 300 302 304 305 309 310
287 288 288 288 287 287 288 288 288 288 288 289 289 289 289 288 288 287 287 287 288 288 289 290 291 292 292 293 293 294 296 297 298 301 303 305 306 306
287 288 287 287 287 287 287 287 288 288 288 288 289 288 287 286 286 286 287 288 288 287 288 289 289 291 292 293 293 295 295 297 297 298 300 302 304 305
287 287 287 287 287 287 287 287 287 287 287 287 286 285 285 285 286 286 287 286 286 287 288 289 290 291 292 291 291 292 294 295 295 297 300 302 303 304
286 286 286 287 287 287 287 287 287 286 285 285 285 284 285 285 285 285 285 286 286 287 287 289 289 290 289 290 289 291 291 293 295 296 296 297 299 300
286 286 286 287 287 288 287 286 284 284 284 284 284 284 284 283 283 284 285 286 286 286 286 287 287 287 287 288 288 290 289 290 292 293 294 295 297 299
286 286 286 286 287 287 286 284 284 284 284 284 283 282 282 282 283 284 284 285 285 284 284 285 285 286 288 287 288 287 287 288 290 290 291 299 300 301
286 286 286 285 286 285 284 283 283 284 283 282 282 282 282 283 283 283 283 283 283 284 284 285 285 286 286 286 287 286 286 288 288 290 296 303 305 305
285 285 285 286 284 283 283 282 283 282 281 281 282 282 282 282 282 282 282 282 283 283 284 284 285 286 286 286 285 285 286 286 289 291 293 298 300 302
284 285 286 283 282 282 281 281 281 281 281 281 282 282 281 281 281 282 282 283 283 284 285 285 286 286 285 285 284 285 286 289 289 290 291 291 292 296
284 285 283 282 281 281 281 281 280 280 281 281 281 281 281 281 281 282 283 283 284 285 285 285 284 283 283 284 285 284 285 289 289 289 290 291 291 292
284 282 282 281 280 280 280 280 280 280 280 280 280 280 281 281 281 281 283 284 285 284 283 282 281 282 283 285 286 288 288 288 289 290 290 290 290 291
282 281 280 280 280 280 280 280 280 280 280 279 280 280 280 281 281 282 283 285 285 284 283 282 281 281 284 284 284 286 286 287 289 289 290 291 290 291
281 280 280 280 279 279 279 279 279 279 279 279 279 280 280 280 281 282 284 284 284 284 283 282 280 280 286 285 283 284 286 286 287 286 287 288 290 290
280 280 279 279 279 279 279 279 279 279 279 279 279 279 280 281 282 283 283 283 283 283 283 282 280 280 280 282 283 283 285 285 285 285 286 286 288 290
279 279 279 279 278 279 279 279 279 278 279 279 279 280 281 281 282 283 283 282 283 283 283 283 281 281 282 283 283 283 284 285 285 286 286 286 286 287
279 278 278 278 278 278 278 278 278 278 278 279 279 280 281 282 283 283 282 282 282 284 284 284 283 284 284 283 283 283 284 285 285 286 286 286 286 285
278 278 278 278 278 278 278 278 278 278 279 279 280 281 282 283 282 282 282 282 283 284 284 285 283 284 284 284 283 284 285 286 286 286 286 286 285 286

GFSNE_925_thetae_006.txt.gz
Theta_e
290 290 291 291 291 291 292 291 292 291 291 290 290 290 290 290 290 291 290 291 291 291 292 293 293 294 294 294 294 295 296 297 298 300 303 304 309 312
289 289 289 290 290 290 290 291 290 290 289 289 290 289 288 289 289 289 289 290 290 291 290 291 292 292 293 294 294 294 296 297 298 298 300 304 307 311
288 288 288 289 289 290 289 289 289 289 289 288 288 288 288 288 288 288 289 289 290 290 290 290 290 291 292 292 293 294 296 296 297 300 301 303 307 308
287 287 288 288 288 288 289 288 288 287 287 287 288 288 287 288 288 288 288 289 289 288 287 288 288 289 290 291 291 292 294 296 298 299 301 302 302 304
286 287 287 287 288 288 288 287 287 287 287 288 288 288 288 288 288 288 288 287 286 286 286 287 288 288 290 291 291 292 294 294 294 295 298 299 301 305
286 286 287 287 288 288 287 287 287 288 288 287 288 288 287 288 287 287 285 285 285 285 285 287 287 287 288 289 289 291 292 293 293 295 297 298 300 303
286 286 286 287 287 287 288 288 288 287 288 288 287 287 287 287 285 284 284 284 284 285 286 284 285 286 287 288 289 290 292 293 293 295 296 298 298 300
285 286 286 286 286 287 287 287 287 288 288 287 287 286 285 285 285 284 284 284 286 284 284 284 285 286 287 289 288 291 292 291 292 293 294 296 296 299
285 285 285 286 286 286 286 287 288 287 286 285 284 283 284 285 284 284 285 285 284 284 284 285 286 286 286 286 287 289 290 291 290 292 294 295 296 299
285 285 285 285 285 286 287 288 287 285 284 283 283 284 284 284 284 283 283 283 283 284 284 285 285 284 284 286 286 286 288 289 292 291 291 293 295 296
285 285 285 286 286 286 287 286 285 284 283 283 284 284 282 282 282 283 283 283 283 283 283 283 283 283 284 284 285 286 289 287 287 288 289 291 293 294
285 285 285 285 285 286 286 285 284 282 283 284 281 280 281 281 282 282 282 283 282 282 282 282 283 284 284 285 285 285 286 286 286 287 289 290 292 293
285 285 284 284 286 285 284 283 282 283 282 280 280 280 281 281 282 281 281 281 281 282 282 283 283 284 284 284 285 286 285 285 284 285 287 290 292 300
285 284 284 285 284 283 282 282 282 282 280 280 280 281 281 280 280 280 280 281 281 282 282 283 283 284 285 285 284 284 283 284 285 287 289 291 294 301
284 284 285 284 282 281 280 281 280 279 280 280 281 280 280 280 280 280 281 281 282 282 283 284 283 284 283 282 282 282 285 284 286 289 290 290 292 295
284 284 282 281 280 280 280 279 279 279 280 280 280 280 279 280 280 280 281 281 282 284 284 283 282 281 282 283 283 284 284 285 288 290 290 291 292 295
284 281 280 279 279 279 279 279 279 279 280 279 279 279 279 280 280 280 281 282 283 284 283 283 281 280 281 282 284 286 287 287 289 290 291 291 291 292
281 280 279 279 279 279 279 279 279 279 279 279 279 279 279 280 280 281 281 283 282 283 283 282 281 280 283 284 284 285 286 287 287 289 291 292 291 291
279 279 279 279 279 278 278 279 279 279 279 278 279 279 279 279 280 281 282 283 282 282 283 282 280 280 282 283 283 286 286 286 288 288 290 291 292 291
279 279 279 278 278 278 278 279 279 278 278 279 279 278 279 280 281 282 282 282 283 283 283 283 281 281 280 281 282 285 286 286 287 288 289 290 291 292
278 278 278 278 278 278 278 278 278 278 279 278 278 279 279 280 281 282 283 283 283 282 283 283 283 284 283 284 285 285 285 287 287 286 287 288 290 291
278 277 277 278 278 278 278 278 278 278 278 278 279 279 280 281 282 281 282 282 282 283 284 283 284 283 283 283 284 284 285 286 287 288 288 287 286 288
277 277 277 277 277 277 277 277 277 278 278 278 279 280 281 281 280 281 283 283 283 284 284 284 284 283 283 284 284 285 286 285 286 286 287 289 289 289

GFSNE_925_thetae_012.txt.gz
Theta_e
287 287 286 286 286 286 286 286 287 287 287 287 287 288 287 287 287 287 287 287 288 288 288 289 289 290 291 292 293 292 292 292 292 294 294 294 296 297
287 286 287 286 286 285 285 286 286 287 287 287 287 287 287 286 286 287 287 287 287 287 287 288 288 288 290 290 289 290 291 291 290 292 293 293 295 296
287 287 286 286 285 285 285 285 286 286 286 287 287 286 286 286 287 287 287 287 287 286 286 287 287 287 288 288 288 288 289 290 291 292 292 293 294 295
287 286 286 285 284 284 285 285 285 286 286 286 286 287 287 287 286 287 287 285 285 284 284 285 286 285 286 286 287 288 288 290 289 290 290 292 293 295
287 286 285 285 284 284 285 285 286 286 287 286 286 286 286 287 286 285 284 283 283 283 284 284 284 285 285 287 287 288 286 287 288 289 290 290 291 292
286 285 285 285 285 285 285 286 286 285 285 286 286 287 287 286 284 283 283 282 282 283 284 284 283 284 284 284 284 285 285 286 287 288 289 290 290 292
285 285 285 285 285 285 286 286 286 286 287 287 286 286 286 284 283 283 282 283 284 282 282 282 282 282 282 283 283 283 284 285 286 288 289 289 290 291
285 285 284 284 284 285 285 285 286 286 286 286 287 285 284 283 283 283 283 282 282 282 282 282 282 282 282 282 282 283 284 285 287 287 287 289 290 290
284 284 284 284 284 284 284 285 285 285 286 284 283 283 283 283 284 283 282 282 282 282 282 282 282 282 282 282 282 283 284 285 286 287 288 288 289 290
284 284 284 284 284 284 285 285 286 283 282 282 282 283 283 282 282 282 282 282 282 281 281 281 281 281 281 281 281 282 284 285 286 287 289 290 290 290
284 284 284 284 284 285 286 284 283 281 281 282 283 282 281 281 281 282 281 281 280 280 280 280 280 280 281 281 281 282 284 285 286 287 288 289 289 290
284 284 284 284 284 285 284 282 281 280 282 281 279 279 279 279 280 280 280 280 280 280 280 280 281 281 282 282 283 283 282 283 284 285 286 288 289 289
285 284 283 284 284 283 282 280 281 282 281 279 279 279 280 280 280 280 280 280 280 280 280 281 282 282 282 282 282 282 281 282 283 283 284 286 287 288
284 283 284 283 281 281 280 281 281 281 278 279 279 280 280 279 279 279 279 279 280 280 280 280 281 282 283 283 282 281 281 281 283 284 284 285 286 287
283 283 282 281 279 279 279 280 280 278 279 279 280 279 279 279 279 279 279 279 280 280 281 281 282 282 283 283 281 280 281 283 284 286 287 288 289 289
282 281 279 279 278 278 278 278 278 278 279 279 279 279 279 279 279 279 279 279 280 281 282 282 283 282 281 280 280 280 282 283 285 287 289 290 291 291
281 279 278 278 278 278 278 278 278 278 279 278 278 278 278 279 279 279 280 280 280 282 282 283 283 282 282 281 280 282 283 286 287 289 290 291 291 291
279 278 277 277 277 277 277 278 278 278 278 278 278 278 278 279 278 280 280 280 282 282 283 283 282 282 282 283 284 284 287 287 288 290 290 291 291 290
277 277 277 277 277 277 277 277 277 277 277 277 277 278 278 278 279 279 280 281 281 283 283 282 282 282 283 284 283 286 287 289 289 290 290 291 291 290
277 277 277 277 277 277 277 277 277 277 276 277 278 277 277 278 278 279 280 281 283 283 283 283 282 284 283 283 282 284 288 289 289 290 290 292 291 291
276 276 276 276 277 277 276 276 276 276 277 277 276 277 278 278 279 279 281 282 283 282 283 283 283 285 285 285 286 286 287 289 290 289 290 289 291 291
276 276 276 276 276 276 276 276 276 276 276 276 277 277 278 279 280 280 282 281 282 282 283 284 284 285 284 284 284 285 287 289 290 290 290 290 290 291
275 276 276 275 275 275 275 275 275 276 276 276 277 277 278 279 280 282 282 282 282 283 283 283 284 285 284 284 284 285 286 288 289 289 289 290 290 290

GFSNE_925_thetae_015.txt.gz
Theta_e
287 287 286 286 286 285 285 285 285 285 285 286 286 286 287 287 286 287 287 287 287 288 289 289 289 289 289 289 290 291 291 292 294 294 295 295 295 295
287 286 286 286 285 285 285 284 285 285 285 286 286 286 286 286 286 286 286 287 287 288 288 288 288 287 287 288 289 289 290 291 292 292 292 293 294 294
287 286 286 286 285 285 284 284 284 285 285 285 286 286 286 286 286 286 286 286 286 286 286 286 285 286 286 287 288 288 289 289 290 290 291 292 292 293
286 286 286 285 285 285 284 284 284 284 284 285 286 285 285 285 285 286 287 285 285 284 284 284 285 286 286 287 287 287 287 288 289 289 290 291 291 292
286 285 285 285 285 284 285 285 284 285 286 285 285 285 285 286 285 285 283 283 283 282 283 283 284 285 285 285 285 286 287 287 288 288 288 289 289 290
285 285 285 284 284 285 285 285 286 285 285 285 286 286 285 285 285 283 282 282 282 282 283 283 283 283 283 284 284 284 285 285 285 286 287 288 288 289
284 284 284 284 285 285 285 285 285 285 285 286 285 285 283 283 282 282 282 282 283 282 281 281 281 281 282 282 282 283 283 284 285 286 287 288 288 289
284 283 283 283 284 284 284 284 285 286 286 286 283 283 281 281 282 282 283 282 282 281 281 282 281 281 281 281 281 283 284 285 285 286 286 287 288 289
284 283 283 283 284 284 284 284 285 285 284 283 282 281 281 282 283 282 282 282 282 282 281 281 281 280 280 281 281 282 283 284 285 285 286 287 288 288
284 284 283 284 284 284 285 285 283 282 281 281 281 282 283 282 282 282 281 282 281 281 280 281 280 280 280 280 281 282 283 284 284 285 286 287 288 289
284 284 284 284 283 285 285 283 282 281 280 282 283 281 281 281 281 282 281 280 280 280 280 280 280 280 280 281 281 282 283 284 284 285 286 286 287 288
285 284 283 283 284 285 283 282 280 280 281 282 279 278 279 279 280 280 280 280 280 280 280 280 280 281 282 282 282 282 282 282 283 284 285 286 287 288
283 283 283 283 283 282 282 280 280 283 281 278 278 279 279 280 279 279 279 280 280 280 280 281 281 280 281 281 282 282 282 282 282 282 283 284 286 287
283 283 282 283 281 281 280 280 281 281 278 278 279 279 279 279 279 279 279 279 279 279 280 280 280 281 281 282 282 283 282 282 281 281 282 284 286 287
283 282 281 280 279 279 279 280 279 278 278 279 279 279 278 278 278 279 279 279 279 280 280 281 281 281 282 283 282 282 283 283 282 283 285 286 287 287
282 280 279 278 278 278 278 278 277 278 279 279 278 278 278 278 278 279 279 279 280 280 281 282 283 283 282 283 281 281 282 283 284 285 288 290 290 290
281 278 277 277 277 277 277 277 277 278 278 277 277 277 277 278 278 278 279 279 280 281 282 283 283 283 283 283 282 283 284 287 288 289 289 290 291 291
278 277 277 277 277 277 277 277 277 277 277 277 277 277 277 278 278 279 278 279 280 281 282 283 282 282 284 285 285 284 287 289 290 290 290 291 291 291
277 276 276 276 276 276 277 277 277 276 276 276 276 276 278 277 278 278 278 279 280 282 283 283 283 283 284 286 285 288 286 290 290 290 290 290 291 290
276 276 276 276 276 276 276 276 276 276 276 276 277 276 276 277 278 278 279 280 282 283 282 283 283 284 284 284 284 285 289 289 290 290 290 290 290 291
276 276 275 276 276 276 276 276 275 276 277 276 275 276 277 277 277 278 279 282 283 281 282 283 283 285 285 285 286 287 288 289 289 289 289 290 290 290
275 275 275 275 275 275 275 275 275 275 275 275 276 276 277 277 278 279 280 282 282 281 282 283 285 285 284 283 285 287 287 288 289 290 289 289 289 290
275 274 275 275 275 275 275 275 275 275 275 276 276 277 277 278 279 280 281 282 282 282 282 282 284 284 284 284 285 285 286 286 287 289 289 289 289 289